Location: Arroyo Grande
(40.2671°N, 4.2512°W)
Time: 19:23:45
(UTC+00:00)

CZ-4B R/B - Pass Details

Date: 03 February 2023
Orbit: 809 x 881 km, 99.0° (Epoch: 21 March)

Event Time Altitude Azimuth Distance (km) Brightness Sun altitude
Rises 19:27:46 0° 171° (S) 3,322 6.2 -21.3°
Reaches altitude 10° 19:30:06 10° 173° (S) 2,401 5.5 -21.7°
Maximum altitude 19:35:23 71° 257° (WSW) 874 3.4 -22.7°
Drops below altitude 10° 19:40:49 10° 342° (NNW) 2,458 5.8 -23.7°
Sets 19:43:13 0° 344° (NNW) 3,407 6.5 -24.2°
